Wind_Speed
18 19 19 19 19 18 18 19 17 17 20 22 21 21 20 19 19 21 26 21 15 14 14 13 14 10 6 7 9 12 5 3 5 7 3 14 12 22 15 30 19 7 30 35 35
18 18 19 20 20 20 18 19 19 18 19 21 21 22 20 18 19 26 21 19 16 17 14 12 12 8 6 10 8 8 5 11 7 5 7 14 25 21 13 22 19 28 33 34 36
18 19 19 20 21 21 20 19 20 20 19 21 20 21 19 17 18 8 5 13 20 20 16 13 12 12 6 12 15 10 11 9 13 11 21 15 13 15 26 14 39 34 37 40 38
19 19 19 20 22 21 21 21 20 21 20 22 20 21 18 15 5 2 5 7 21 19 18 17 14 3 3 3 7 5 16 26 13 24 22 11 17 8 16 18 33 40 38 42 41
19 20 20 20 21 22 22 20 21 20 22 22 21 20 16 10 21 10 3 5 19 21 23 18 8 5 4 4 8 16 13 23 27 24 20 17 11 13 21 35 35 36 37 37 37
20 21 20 20 21 22 23 22 22 22 22 22 23 20 12 6 5 8 4 8 16 23 22 19 7 4 11 7 4 20 33 30 31 27 21 21 18 12 27 34 34 34 31 35 32
22 21 21 21 21 22 23 23 24 23 24 22 22 19 15 27 11 6 8 7 14 21 22 18 18 15 4 10 14 37 20 13 17 19 8 28 7 10 32 34 32 31 29 29 26
24 23 22 22 22 22 23 22 24 26 25 25 18 16 12 16 8 11 9 8 17 19 18 15 14 17 16 18 8 8 14 8 7 17 16 13 6 13 35 32 28 30 31 30 29
25 25 24 23 23 23 23 22 23 26 23 13 7 7 14 6 11 13 15 8 14 18 15 13 15 19 13 1 5 5 8 12 6 6 9 6 8 18 32 31 29 29 30 33 33
24 26 25 22 23 24 22 21 22 16 5 7 6 6 11 5 10 18 12 11 11 16 15 14 8 2 3 4 4 5 7 17 14 11 3 11 8 20 29 29 29 30 30 31 36
25 25 27 24 21 24 22 20 12 4 17 17 24 24 35 29 15 20 17 19 16 10 6 6 3 6 9 8 6 5 7 12 10 11 8 16 12 19 26 25 24 27 30 31 35
26 26 25 24 22 21 19 10 12 14 16 29 32 35 38 33 17 19 22 15 11 7 5 3 7 11 6 4 6 4 7 8 3 12 7 13 17 19 23 28 31 30 30 34 31
26 26 27 24 22 18 12 9 13 21 7 25 36 34 39 21 27 29 29 29 5 7 6 7 7 7 5 9 4 6 8 9 10 6 6 11 1 8 15 22 25 27 38 40 37
25 25 25 25 14 10 17 6 14 13 3 9 6 14 28 21 9 27 30 25 6 14 6 6 12 8 8 8 7 8 10 14 8 16 7 8 6 6 17 15 13 24 31 38 40
24 24 23 22 23 18 14 9 8 4 4 5 6 5 24 15 6 18 35 26 11 7 8 9 10 10 9 16 7 13 8 12 11 16 7 3 5 10 8 9 11 21 37 42 44
25 23 25 20 24 13 3 5 1 5 7 6 5 6 7 11 11 21 30 32 16 5 4 10 17 8 11 17 9 14 5 6 5 5 2 11 7 4 10 25 21 18 32 37 43
28 23 25 24 22 11 13 9 4 4 5 6 4 6 10 8 9 6 17 13 15 6 8 4 17 10 11 6 8 4 6 2 2 1 6 8 8 11 21 24 18 23 35 41 45
31 25 23 24 19 15 8 3 5 10 16 6 10 14 4 3 9 10 8 13 11 5 3 9 12 15 6 11 11 8 10 6 7 3 5 8 7 11 17 36 34 34 43 44 42
32 26 25 18 13 15 12 3 9 7 3 3 7 7 5 3 3 11 11 17 17 11 14 6 8 8 11 11 11 9 4 10 7 1 3 4 7 6 6 16 21 28 32 38 42
33 29 19 6 14 22 3 7 7 4 7 9 1 4 8 6 7 10 12 13 17 13 9 8 4 8 14 6 7 15 8 3 3 7 4 5 4 6 4 12 12 14 26 37 40
24 14 6 7 18 13 4 8 7 13 18 4 4 9 13 16 14 11 15 13 24 20 12 12 5 13 1 6 10 2 3 4 6 5 6 3 6 7 15 17 18 18 30 32 42
11 4 12 22 5 5 3 5 5 9 20 10 7 15 13 17 21 17 22 17 33 24 12 10 7 13 18 12 8 8 9 7 6 5 1 5 7 5 13 13 22 25 32 36 44
21 10 13 17 3 3 6 8 9 10 10 7 9 15 14 15 16 10 8 11 21 26 20 11 6 8 8 7 3 7 6 6 6 5 7 6 5 1 4 3 19 24 29 31 33
7 4 5 6 12 1 5 7 9 12 11 15 19 22 16 16 8 5 6 6 11 27 41 18 6 11 14 9 5 6 7 7 8 5 6 6 5 3 6 10 9 26 32 29 28
5 4 5 4 4 9 3 5 12 14 10 9 10 4 7 8 6 4 5 7 2 16 22 12 9 7 10 19 10 14 12 9 6 9 9 8 11 10 11 12 21 32 29 26 29
6 6 8 10 15 5 5 2 9 14 7 6 4 8 10 3 6 3 2 3 3 9 7 6 7 9 16 8 8 7 9 14 7 5 2 6 7 11 21 24 22 32 33 31 27
8 9 5 8 5 4 1 8 15 17 6 3 3 4 3 6 20 16 18 9 8 4 4 11 7 5 9 7 6 4 2 7 3 4 6 7 11 10 5 8 20 24 25 23 17
Wind_Direction
338 338 338 339 339 341 338 336 334 334 333 333 329 326 322 307 294 282 267 253 256 237 236 241 262 270 276 268 211 144 100 237 224 163 193 165 126 150 137 137 154 197 155 149 153
335 334 333 334 336 336 336 334 331 331 331 332 330 328 326 317 299 280 280 255 235 219 228 236 249 242 262 248 203 178 138 199 231 179 145 143 135 143 133 148 120 125 139 156 159
331 331 330 329 331 332 332 332 330 327 327 330 326 328 321 322 312 288 264 227 202 207 218 230 243 265 241 237 230 219 224 160 205 148 134 122 120 131 136 143 146 152 152 161 163
326 327 327 326 326 328 328 327 327 324 324 327 323 324 317 317 282 248 2 204 188 196 210 226 245 226 265 276 265 139 213 153 180 149 139 157 125 102 156 159 153 148 156 162 165
322 323 323 322 322 323 324 323 322 321 321 324 321 320 316 293 268 237 12 182 183 194 209 222 246 246 241 262 336 204 120 160 153 146 136 135 101 108 122 143 148 148 154 161 165
321 320 320 320 318 318 320 321 318 318 317 320 320 313 305 277 316 214 195 200 200 200 211 216 214 227 286 275 27 143 139 149 142 133 130 118 132 104 139 144 151 156 160 173 177
323 322 319 318 317 314 315 318 315 315 313 312 313 301 286 272 286 228 199 229 223 215 217 221 227 254 297 326 358 141 132 130 150 150 130 105 79 127 150 151 153 162 169 174 174
322 322 320 319 316 312 311 315 312 312 311 305 299 287 268 294 215 197 207 220 219 224 231 228 236 272 272 281 309 141 122 135 216 143 159 104 147 135 151 153 161 166 174 178 185
323 320 319 319 318 312 309 314 312 311 309 311 283 268 270 254 227 203 208 209 210 217 223 234 266 264 272 99 358 322 153 138 161 239 139 110 143 165 160 160 166 177 183 184 189
321 320 316 317 319 313 309 316 314 309 315 346 263 296 260 227 260 200 209 210 213 205 236 248 241 166 41 89 229 226 109 162 170 177 109 139 172 167 173 171 176 182 188 189 193
320 318 315 316 317 314 313 326 340 317 317 284 278 266 280 279 306 218 197 204 214 209 183 233 123 216 233 198 208 217 133 175 195 152 126 158 161 176 177 183 191 188 191 193 195
320 317 314 313 314 310 306 308 355 316 301 287 279 276 271 273 281 260 196 211 194 196 173 303 215 228 227 212 231 234 201 198 217 164 116 167 172 181 181 195 193 189 187 185 187
319 318 315 312 313 306 292 310 324 327 256 279 260 249 252 250 242 253 201 211 151 192 201 184 239 227 218 267 280 285 203 199 186 146 69 128 179 189 204 201 204 199 189 185 188
318 318 317 315 311 304 312 275 313 320 322 283 231 239 229 225 266 230 214 206 206 200 193 199 245 238 232 244 179 268 215 220 161 160 159 176 206 243 197 198 202 190 186 188 191
316 316 316 316 300 301 308 306 305 320 322 252 237 265 196 170 233 206 192 198 200 178 138 228 216 225 237 237 176 241 214 199 168 176 110 185 104 213 137 213 212 199 197 194 198
314 313 309 306 289 314 342 318 203 46 254 289 201 177 112 170 231 176 186 205 218 186 209 211 247 182 221 248 218 245 254 52 55 96 133 205 154 249 188 209 210 216 202 197 200
310 311 301 290 281 283 302 322 62 175 306 273 33 22 177 170 222 167 183 193 205 167 218 294 237 244 213 237 273 168 67 305 342 120 205 192 190 234 207 217 204 198 198 200 204
311 311 295 277 277 259 244 72 208 226 227 279 344 327 267 174 220 217 174 197 222 134 168 216 251 225 214 189 221 210 158 158 200 250 251 141 212 246 200 207 205 200 197 200 198
316 315 296 286 247 214 193 181 205 204 232 323 11 305 260 252 226 210 183 206 211 176 206 172 245 262 223 221 166 237 147 188 138 70 68 259 299 329 205 195 185 187 189 196 198
326 322 307 300 203 183 135 234 227 205 323 329 185 243 281 291 319 209 203 195 207 194 168 219 271 242 253 192 248 190 174 96 0 164 202 281 259 230 199 181 194 189 187 193 197
329 320 301 288 169 169 200 231 267 267 285 258 233 268 274 288 281 277 222 219 196 209 166 195 142 262 55 213 208 78 128 62 121 138 162 224 268 217 199 184 186 200 208 190 195
349 319 319 165 133 194 217 228 238 264 285 288 284 266 269 294 300 274 219 201 194 203 198 196 175 236 248 249 229 164 172 147 139 228 153 159 264 263 183 184 183 202 208 207 201
329 281 205 213 258 256 276 272 268 268 251 254 256 266 277 281 284 239 206 217 223 198 201 195 209 236 303 331 357 162 165 141 108 91 184 140 255 138 53 125 180 185 207 212 213
308 318 309 216 278 342 5 287 285 286 270 280 283 276 288 275 256 279 277 264 209 203 205 175 146 194 224 214 183 194 162 161 142 142 173 203 188 162 183 178 186 183 174 184 193
244 252 5 318 312 324 260 270 293 307 285 277 293 46 342 274 290 329 324 324 283 218 211 160 181 155 213 223 211 203 184 160 153 181 168 217 183 208 192 181 181 177 176 180 188
309 356 334 294 288 289 273 282 324 308 258 278 260 351 346 354 320 315 342 333 307 328 234 177 216 153 227 229 212 163 210 161 153 132 72 160 213 196 197 176 176 178 182 185 199
316 307 320 285 306 316 21 330 308 316 317 51 321 332 17 320 309 272 269 255 243 279 299 153 140 119 214 158 117 74 119 215 244 73 200 169 220 160 163 185 174 172 172 161 158
Height
1535 1532 1530 1527 1524 1522 1519 1516 1513 1510 1507 1504 1501 1499 1497 1495 1493 1491 1487 1488 1491 1493 1494 1495 1495 1498 1502 1502 1505 1506 1523 1531 1521 1519 1516 1514 1513 1522 1522 1523 1529 1531 1533 1540 1547
1533 1531 1528 1525 1522 1520 1517 1514 1511 1508 1505 1501 1498 1496 1494 1491 1488 1483 1481 1482 1487 1489 1491 1492 1493 1496 1499 1499 1501 1503 1519 1517 1504 1505 1507 1512 1512 1518 1524 1529 1531 1534 1539 1543 1548
1531 1529 1526 1523 1520 1517 1514 1511 1508 1505 1502 1499 1496 1493 1491 1488 1485 1476 1475 1476 1480 1485 1487 1488 1489 1492 1494 1494 1496 1494 1502 1499 1501 1504 1506 1510 1515 1517 1522 1529 1524 1530 1536 1542 1547
1529 1526 1523 1521 1517 1515 1512 1508 1505 1502 1500 1496 1493 1490 1488 1487 1489 1474 1473 1473 1476 1482 1485 1485 1485 1490 1488 1488 1489 1491 1488 1492 1502 1503 1505 1508 1512 1518 1517 1524 1526 1531 1536 1541 1545
1526 1523 1521 1518 1515 1512 1509 1506 1503 1499 1497 1494 1490 1487 1485 1483 1474 1473 1473 1473 1475 1478 1479 1482 1485 1486 1486 1484 1486 1483 1486 1497 1499 1501 1504 1507 1513 1516 1522 1525 1531 1534 1540 1543 1545
1524 1521 1518 1515 1512 1508 1505 1503 1499 1496 1493 1491 1488 1484 1483 1481 1470 1470 1472 1473 1474 1474 1477 1480 1483 1484 1482 1480 1483 1482 1486 1495 1495 1500 1504 1506 1514 1515 1528 1528 1533 1536 1539 1543 1545
1521 1518 1515 1512 1508 1505 1502 1499 1496 1493 1489 1486 1484 1481 1478 1470 1469 1468 1470 1472 1473 1473 1475 1479 1483 1486 1482 1480 1477 1478 1493 1497 1500 1501 1506 1503 1518 1519 1524 1530 1533 1536 1540 1543 1545
1519 1515 1511 1508 1505 1501 1497 1495 1491 1488 1485 1482 1479 1478 1471 1466 1465 1466 1468 1469 1470 1471 1475 1478 1483 1484 1484 1481 1480 1484 1489 1514 1505 1499 1505 1503 1534 1523 1525 1528 1533 1536 1538 1541 1544
1516 1512 1508 1505 1501 1497 1493 1490 1487 1483 1480 1477 1477 1476 1466 1464 1464 1464 1466 1467 1469 1470 1473 1476 1481 1481 1480 1484 1495 1491 1507 1505 1508 1495 1497 1505 1528 1522 1523 1525 1528 1532 1534 1536 1540
1512 1510 1506 1501 1498 1493 1489 1487 1483 1479 1478 1476 1475 1478 1463 1462 1462 1463 1464 1466 1468 1470 1473 1475 1477 1479 1482 1492 1517 1500 1502 1498 1501 1496 1496 1506 1515 1514 1518 1522 1521 1525 1530 1532 1535
1508 1504 1503 1499 1495 1490 1486 1484 1483 1479 1476 1475 1471 1467 1460 1461 1460 1460 1462 1464 1466 1468 1473 1469 1478 1487 1481 1481 1478 1485 1490 1494 1487 1488 1499 1503 1510 1509 1514 1519 1522 1521 1524 1528 1531
1505 1501 1497 1495 1492 1488 1485 1484 1486 1488 1472 1463 1461 1458 1453 1457 1460 1456 1460 1462 1462 1469 1468 1475 1481 1468 1468 1473 1478 1484 1491 1490 1483 1482 1491 1504 1508 1505 1509 1509 1512 1516 1521 1524 1529
1501 1498 1493 1491 1488 1485 1482 1482 1481 1479 1473 1445 1445 1444 1443 1450 1450 1449 1454 1456 1459 1465 1466 1476 1466 1462 1467 1470 1479 1481 1487 1487 1484 1481 1490 1504 1520 1513 1508 1510 1513 1515 1514 1518 1521
1498 1494 1490 1486 1487 1482 1481 1480 1480 1478 1479 1445 1433 1426 1434 1442 1445 1443 1447 1453 1456 1462 1465 1468 1459 1462 1467 1471 1474 1493 1472 1466 1476 1484 1516 1494 1538 1517 1504 1507 1507 1509 1512 1514 1515
1494 1491 1488 1486 1482 1480 1480 1479 1477 1477 1507 1433 1425 1421 1423 1435 1433 1434 1440 1447 1453 1453 1459 1465 1459 1462 1469 1463 1464 1472 1461 1467 1467 1478 1494 1500 1522 1500 1508 1513 1504 1501 1500 1504 1507
1490 1488 1483 1484 1478 1479 1477 1476 1476 1491 1498 1440 1420 1420 1424 1431 1432 1434 1437 1444 1447 1451 1452 1455 1450 1452 1456 1451 1455 1451 1457 1466 1476 1494 1520 1498 1507 1514 1506 1489 1489 1493 1497 1501 1504
1484 1483 1479 1475 1473 1477 1476 1476 1490 1499 1451 1438 1428 1426 1424 1429 1432 1433 1435 1442 1451 1469 1468 1456 1451 1446 1446 1456 1449 1453 1476 1509 1510 1523 1525 1495 1504 1488 1477 1473 1475 1481 1487 1492 1497
1477 1475 1470 1467 1469 1472 1474 1478 1492 1458 1450 1426 1432 1432 1438 1429 1430 1429 1438 1444 1441 1449 1466 1473 1475 1444 1440 1448 1457 1459 1470 1508 1519 1518 1505 1487 1499 1473 1456 1455 1466 1472 1477 1485 1490
1471 1467 1459 1459 1461 1465 1470 1483 1467 1453 1441 1439 1439 1444 1436 1430 1432 1431 1436 1437 1432 1438 1458 1472 1467 1436 1433 1435 1443 1454 1469 1457 1487 1490 1505 1491 1470 1450 1446 1454 1462 1468 1477 1479 1483
1466 1461 1454 1451 1454 1459 1468 1465 1453 1439 1439 1439 1452 1445 1448 1439 1441 1435 1432 1419 1426 1425 1430 1446 1467 1435 1428 1430 1430 1434 1438 1473 1487 1508 1510 1498 1484 1483 1462 1458 1458 1464 1468 1471 1478
1468 1460 1451 1450 1454 1458 1468 1458 1442 1438 1441 1441 1444 1443 1440 1439 1435 1434 1421 1410 1409 1416 1422 1431 1448 1438 1431 1435 1440 1439 1446 1455 1467 1483 1506 1513 1497 1452 1446 1447 1453 1455 1458 1468 1473
1469 1466 1449 1452 1454 1453 1457 1444 1439 1437 1437 1435 1434 1430 1433 1427 1424 1422 1411 1400 1396 1402 1420 1420 1440 1448 1436 1419 1416 1418 1435 1447 1477 1481 1485 1492 1487 1438 1437 1440 1444 1450 1455 1460 1467
1468 1463 1455 1453 1460 1453 1444 1439 1436 1434 1432 1430 1428 1421 1422 1426 1429 1408 1399 1388 1392 1392 1403 1409 1436 1450 1446 1430 1415 1418 1423 1432 1447 1462 1480 1492 1482 1437 1439 1440 1441 1447 1452 1457 1461
1474 1468 1451 1449 1448 1447 1451 1442 1435 1427 1426 1423 1420 1416 1416 1415 1405 1405 1397 1380 1379 1382 1382 1394 1421 1429 1442 1439 1420 1424 1421 1425 1438 1469 1474 1470 1455 1444 1443 1445 1444 1446 1448 1452 1456
1474 1465 1462 1459 1450 1453 1451 1442 1433 1427 1417 1415 1415 1414 1419 1418 1405 1401 1392 1383 1374 1373 1377 1389 1418 1418 1416 1406 1411 1407 1411 1422 1431 1436 1451 1448 1451 1442 1437 1436 1436 1439 1444 1449 1452
1474 1469 1463 1460 1452 1449 1443 1436 1434 1425 1415 1410 1413 1410 1412 1411 1405 1402 1397 1394 1388 1378 1376 1385 1408 1406 1411 1404 1403 1406 1404 1408 1416 1426 1428 1434 1440 1424 1424 1429 1434 1435 1438 1440 1447
1473 1469 1466 1457 1453 1451 1446 1444 1433 1429 1411 1406 1408 1404 1403 1403 1399 1393 1388 1385 1387 1387 1381 1388 1399 1414 1426 1407 1408 1421 1404 1404 1408 1414 1420 1442 1424 1418 1426 1428 1428 1433 1438 1440 1444